Simultaneous Nadir Overpasses (SNOs) Predictions

Prediction of SNOs between NOAA-20 and METOP-B Satellite Orbit:

Table of predicted SNOs for the next 14.0 days since TLE Epoch: 2/22/2020
Index Date (NOAA-20) Time (NOAA-20) Lat,Lon (NOAA-20) SZA (NOAA-20 ) Date (METOP-B) Time (METOP-B) Lat,Lon (METOP-B) SZA (METOP-B ) Distance(km) Time Diff (sec)
1 02/24/2020 06:59:10 -73.45,-114.49 96.60 02/24/2020 07:00:17 -73.40,-111.72 96.82 88.07 67
2 02/24/2020 07:49:52 73.26, 53.25 83.18 02/24/2020 07:51:01 73.17, 55.11 82.97 60.32 69
3 02/24/2020 08:40:34 -73.15,-139.20 96.96 02/24/2020 08:41:44 -73.13,-137.65 97.08 49.87 70
4 02/24/2020 09:31:16 72.96, 28.53 82.82 02/24/2020 09:32:28 72.90, 29.18 82.70 22.29 72
5 02/24/2020 10:21:58 -72.85,-163.93 97.31 02/24/2020 10:23:12 -72.81,-163.68 97.39 9.64 74
6 02/24/2020 11:12:42 72.76, 3.58 82.57 02/24/2020 11:13:52 72.78, 3.59 82.57 2.13 70
7 02/24/2020 12:03:26 -72.76, 170.90 97.45 02/24/2020 12:04:35 -72.74, 170.83 97.48 2.89 69
8 02/24/2020 12:54:12 72.76, -21.80 82.55 02/24/2020 12:55:14 72.76, -21.79 82.53 0.63 62
9 02/24/2020 13:44:56 -72.76, 145.52 97.47 02/24/2020 13:45:56 -72.77, 145.56 97.48 1.75 60
10 02/24/2020 14:35:42 72.76, -47.19 82.53 02/24/2020 14:36:36 72.74, -47.17 82.49 3.07 54
11 02/24/2020 15:26:26 -72.76, 120.14 97.49 02/24/2020 15:27:18 -72.75, 120.18 97.52 1.94 52
12 02/24/2020 16:17:11 72.72, -72.46 82.45 02/24/2020 16:17:58 72.72, -72.55 82.44 3.05 47
13 02/24/2020 17:07:55 -72.71, 94.86 97.57 02/24/2020 17:08:40 -72.73, 94.80 97.57 2.69 45
14 02/24/2020 17:58:41 72.72, -97.84 82.43 02/24/2020 17:59:19 72.75, -97.83 82.44 3.14 38
15 02/24/2020 18:49:25 -72.72, 69.48 97.60 02/24/2020 18:50:02 -72.71, 69.42 97.61 2.29 37
16 02/24/2020 19:40:11 72.72,-123.22 82.40 02/24/2020 19:40:41 72.73,-123.21 82.40 0.70 30
17 02/24/2020 20:30:55 -72.72, 44.10 97.62 02/24/2020 20:31:23 -72.74, 44.14 97.61 2.57 28
18 02/24/2020 21:21:41 72.73,-148.60 82.38 02/24/2020 21:22:03 72.71,-148.59 82.36 2.08 22
19 02/24/2020 22:12:25 -72.72, 18.72 97.64 02/24/2020 22:12:45 -72.72, 18.76 97.65 1.42 20
20 02/24/2020 23:03:10 72.68,-173.88 82.30 02/24/2020 23:03:25 72.69,-173.97 82.31 3.18 15
21 02/24/2020 23:53:55 -72.73, -6.66 97.66 02/24/2020 23:54:07 -72.70, -6.62 97.69 3.23 12
22 02/25/2020 00:44:40 72.68, 160.74 82.28 02/25/2020 00:44:47 72.67, 160.65 82.27 3.37 7
23 02/25/2020 01:35:24 -72.68, -31.94 97.74 02/25/2020 01:35:29 -72.68, -32.00 97.74 2.06 5
24 02/25/2020 02:26:10 72.69, 135.36 82.26 02/25/2020 02:26:08 72.70, 135.37 82.27 1.62 2
25 02/25/2020 03:16:54 -72.68, -57.32 97.76 02/25/2020 03:16:51 -72.66, -57.38 97.78 3.16 3
26 02/25/2020 04:07:40 72.69, 109.98 82.23 02/25/2020 04:07:30 72.68, 109.99 82.23 1.14 10
27 02/25/2020 04:58:24 -72.69, -82.70 97.79 02/25/2020 04:58:12 -72.69, -82.66 97.78 1.58 12
28 02/25/2020 05:49:09 72.64, 84.70 82.16 02/25/2020 05:48:52 72.66, 84.61 82.18 3.60 17
29 02/25/2020 06:39:54 -72.69,-108.08 97.81 02/25/2020 06:39:34 -72.67,-108.04 97.82 2.37 20
30 02/25/2020 07:30:39 72.64, 59.32 82.13 02/25/2020 07:30:14 72.64, 59.23 82.14 2.99 25
31 02/25/2020 08:21:23 -72.64,-133.36 97.89 02/25/2020 08:20:56 -72.65,-133.42 97.87 2.32 27
32 02/25/2020 09:12:09 72.65, 33.94 82.11 02/25/2020 09:11:35 72.67, 33.95 82.14 2.61 34
33 02/25/2020 10:02:53 -72.64,-158.74 97.91 02/25/2020 10:02:18 -72.63,-158.80 97.91 2.40 35
34 02/25/2020 10:53:39 72.65, 8.56 82.09 02/25/2020 10:52:57 72.65, 8.57 82.10 0.55 42
35 02/25/2020 11:44:23 -72.65, 175.88 97.93 02/25/2020 11:43:39 -72.66, 175.92 97.91 2.27 44
36 02/25/2020 12:35:09 72.65, -16.83 82.06 02/25/2020 12:34:19 72.63, -16.81 82.05 2.66 50
37 02/25/2020 13:25:53 -72.65, 150.50 97.96 02/25/2020 13:25:01 -72.64, 150.54 97.95 1.73 52
38 02/25/2020 14:16:38 72.61, -42.10 81.99 02/25/2020 14:15:41 72.61, -42.19 82.01 2.91 57
39 02/25/2020 15:07:22 -72.60, 125.22 98.04 02/25/2020 15:06:23 -72.62, 125.16 98.00 2.93 59
40 02/25/2020 15:58:08 72.61, -67.48 81.96 02/25/2020 15:57:03 72.59, -67.57 81.97 3.54 65
41 02/25/2020 16:48:52 -72.61, 99.84 98.06 02/25/2020 16:47:45 -72.60, 99.78 98.04 1.91 67
42 02/25/2020 17:39:38 72.61, -92.86 81.94 02/25/2020 17:38:24 72.62, -92.85 81.97 1.17 74
43 02/25/2020 18:30:22 -72.61, 74.46 98.08 02/25/2020 18:29:07 -72.58, 74.40 98.08 3.44 75
44 02/25/2020 19:21:03 72.36,-117.73 81.64 02/25/2020 19:19:51 72.35,-118.74 81.70 33.91 72
45 02/25/2020 20:11:46 -72.31, 49.69 98.44 02/25/2020 20:10:34 -72.31, 48.52 98.35 39.66 72
46 02/25/2020 21:02:27 72.06,-142.51 81.28 02/25/2020 21:01:18 72.07,-144.61 81.44 71.86 69
47 02/25/2020 21:53:10 -72.01, 24.90 98.79 02/25/2020 21:52:02 -71.98, 22.55 98.66 80.96 68




NCC Satellite Simultaneous Nadir Overpasses (SNOs) Prediction Service
